Home   Weather   Metlakatla   Past weeks

Flag for USA Past Weather in Metlakatla, Alaska, USA — Yesterday and Last 2 Weeks

Now
37 °F

Passing clouds.


Feels Like: 31 °F
Forecast: 37 / 42 °F
Wind: 8 mph from West

Location: Annette Island

Current Time: Dec 3, 2016 at 2:53:41 am

Latest Report: Dec 3, 2016 at 1:53 am


Visibility: 10 mi

Pressure: 29.80 "Hg

Humidity: 82%

Dew Point: 32 °F

Location of MetlakatlaLocation

Past Weather in Metlakatla — Graph

°F

Metlakatla Temperature Yesterday

Maximum temperature yesterday: 49 °F (at 1:53 am)
Minimum temperature yesterday: 40 °F (at 8:53 pm)
Average temperature yesterday: 46 °F

High & Low Weather Summary for the Past Weeks

 TemperatureHumidityPressure
High51 °F (Nov 29, 2:53 pm)93% (Nov 29, 11:53 pm)30.11 "Hg (Nov 29, 11:53 pm)
Low26 °F (Nov 21, 1:53 am)39% (Nov 26, 1:53 pm)29.20 "Hg (Nov 27, 6:53 am)
Average42 °F75%29.63 "Hg
* Reported Nov 18 12:53 am — Dec 3 12:53 am, Metlakatla, Weather by CustomWeather, © 2016

Note: Actual official high and low records may vary slightly from our data, if they occured in-between our weather recording intervals... More about our weather records

Advertising

Metlakatla Weather History for the Previous 24 Hours

Scroll right to see more
 ConditionsComfort  
Time TempWeatherWind HumidityBarometerVisibility
12:53 am
Sat, Dec 3
36 °FPassing clouds.No wind85%29.76 "Hg10 mi
12:02 am37 °FOvercast.No wind82%29.76 "Hg10 mi
10:53 pm
Fri, Dec 2
41 °FPartly cloudy.N/A74%29.74 "Hg10 mi
9:53 pm41 °FPassing clouds.5 mph70%29.72 "Hg10 mi
8:53 pm40 °FPartly cloudy.6 mph77%29.70 "Hg10 mi
7:53 pm43 °FPartly cloudy.8 mph68%29.67 "Hg10 mi
6:53 pm44 °FPartly cloudy.5 mph68%29.66 "Hg10 mi
5:53 pm44 °FPassing clouds.6 mph73%29.64 "Hg10 mi
4:53 pm45 °FPassing clouds.7 mph71%29.61 "Hg10 mi
3:53 pm44 °FLight rain. Partly cloudy.8 mph76%29.58 "Hg10 mi
2:53 pm46 °FMostly cloudy.6 mph77%29.56 "Hg10 mi
1:53 pm44 °FLight rain. Mostly cloudy.6 mph82%29.53 "Hg6 mi
12:53 pm46 °FMostly cloudy.12 mph79%29.51 "Hg10 mi
11:53 am45 °FLight rain. More clouds than sun.13 mph80%29.49 "Hg4 mi
10:53 am47 °FLight rain. Mostly cloudy.14 mph77%29.47 "Hg7 mi
9:53 am45 °FLight rain. Cloudy.15 mph80%29.45 "Hg7 mi
8:00 am47 °FLight rain. More clouds than sun.13 mph74%29.39 "Hg10 mi
6:53 am48 °FMostly cloudy.16 mph71%29.37 "Hg10 mi
5:53 am48 °FOvercast.14 mph71%29.36 "Hg10 mi
4:53 am48 °FLight rain. Overcast.15 mph68%29.35 "Hg10 mi
3:53 am49 °FPartly cloudy.16 mph71%29.34 "Hg10 mi
2:53 am49 °FMostly cloudy.12 mph77%29.33 "Hg10 mi
2:04 am49 °FMostly cloudy.17 mph84%29.34 "Hg10 mi
Weather by CustomWeather, © 2016

See weather overviewHow to use our weather pages